Погода Саран-Пауль

Погода Саран-Пауль : погода сейчас, прогноз погоды и архив. Всё, что Вы хотите узнать о погоде Саран-Пауль!

Хотите узнать прогноз погоды Саран-Пауль? Тогда Вам сюда: Погода Саран-Пауль

Поиск расширенной информации на нашем сайте:

Другие новости

Новости СМИ2

Главная страница сайта

Новости сайта

03.07.2017

Напоминаем, что на нашем специализированном сайте Метеоцентр.Азия вы можете получить высокодетализированные автоматические прогнозы погоды по пунктам России, СНГ и мира в авиационном формате (включающие направление и скорость ветра, видимость, явления погоды, количество и форму облачности, нижнюю и верхнюю границу облачности).


Погода Саран-Пауль - сегодня

Время (UTC), дата Ветер
(°,м/с) 
Видим.   Явления Облачность Т
(°С)
Тd
(°С)
f(%) Тe
(°С)
Pmin
(гПа)
dP
(гПа)
Po
(мм)
O2
(г/м3)
Тmin Tmax R s Состояние
почвы
00 16.10.18 170 (Ю) 11000 м  в посл. час ливневой снег  10/10 300 м кучево-дожд. 
[Cb cap]
+0 -0.2 99 -2  1006.7  -3.4  752  303           
03 16.10.18 180 (Ю) 10 км    10/8 600 м кучево-дожд., средняя 
[Cb cap|Ac As]
+0.3 -0.3 96 -1  1004.3  -2.3  751  302  -0.7    равномерный
мокрый или
старый снег
100% 
06 16.10.18 190 (Ю) 20000 м    10/6 600 м кучево-дожд., средняя 
[Cb cap|Ac As]
+1.4 +0.6 94 +1  1002.6  -1.6  749  300           
09 16.10.18 110 (В) 20000 м    9/5 600 м кучево-дожд., средняя 
[Cb cap|Ac lent]
+4.1 +2.8 91 +5  1003.3  0.7  750  297           
12 16.10.18 230 (ЮЗ) 20000 м    10/6 600 м кучево-дожд., средняя 
[Cb cap|Ac trans]
+4.6 +1.3 79 +4  1004.2  0.8  750  297           
18 16.10.18 210 (ЮЗ) 50000 м    10/10 600 м кучево-дожд. 
[Cb cap]
+4.2 -0.1 74 +5  1001.9  -1.7  749  297           
21 16.10.18 190 (Ю) 50000 м    10/10 600 м кучево-дожд. 
[Cb cap]
+3.2 -0.5 77 +4  999.6  -2.3  747  298           
00 17.10.18 220 (ЮЗ) 9000 м  слаб. ливневой дождь  10/10 600 м кучево-дожд. 
[Cb cap]
+3.1 +0.9 85 +3  997.1  -2.4  745  297           
03 17.10.18 260 (З) 20000 м  {ливн. осадки}  10/8 600 м кучево-дожд., средняя 
[Cb cap|Ac As]
+2.3 +1.6 95 +2  996.8  -0.3  745  297  +2.1    0.2     
09 17.10.18 350 (С) 20000 м    8/4 600 м кучево-дожд., средняя, верхняя 
[Cb cap|Ac lent|Ci fib]
+5.9 -3.1 52 +5  1001  748  295           
12 17.10.18 320 (СЗ) 4{10}  20000 м    8/4 1000 м средняя, верхняя 
[Cu Sc|Ac lent|Ci fib]
+4.1 -5.3 50 +2  1003.9  2.8  750  298           
18 17.10.18 320 (СЗ) 50000 м    3/0 средняя 
[Ac lent]
-0.3 -4.4 74 -3  1008.9  2.1  754  305           
21 17.10.18 310 (СЗ) 50000 м    3/0 средняя 
[Ac lent]
+0 -5.9 64 -2  1010.6  1.7  755  305           
00 18.10.18 260 (З) 50000 м    ясно 
-4.2 -6.8 82 -5  1012.6  1.8  757  310           
03 18.10.18 280 (З) 20000 м    ясно 
-3.1 -7.1 74 -4  1014.3  1.6  758  310  -4.4         
06 18.10.18 320 (СЗ) 20000 м    ясно 
+1.4 -6.4 56 +2  1014.8  0.6  758  305           
09 18.10.18 130 (ЮВ) 20000 м    8/0 средняя, верхняя 
[Ac lent|Cs]
+3.1 -7.4 46 +4  1014.4  -0.4  758  303           
12 18.10.18 130 (ЮВ) 20000 м    10/0 средняя, верхняя 
[Ac trans|Cc]
+0.6 -6.3 60 +1  1013  -1.4  757  305           
18 18.10.18 140 (ЮВ) 27000 м    10/0 средняя 
[Ac As]
-0.8 -4.9 74 1010  -2  755  306           
21 18.10.18 110 (В) 6000 м  слаб. снег  10/0 средняя 
[As op]
-2 -3.1 92 -3  1008.4  -1.6  754  306           
00 19.10.18 110 (В) 7000 м  слаб. снег  10/0 средняя 
[As op]
-2.6 -2.9 98 -5  1007.5  -0.9  753  307           
03 19.10.18 090 (В) 10 км  слаб. снег  10/0 средняя 
[As op]
-2.8 -3.3 96 -4  1006.9  -0.6  752  307  -2.8    равномерный
сухой снег
100% 
09 19.10.18 070 (В) 10 км  слаб. снег  10/0 средняя 
[As op]
-1.8 -2.1 98 -1  1005.4  -0.8  751  305           
12 19.10.18 070 (В) 4000 м  слаб. ливневой снег  10/10 600 м кучево-дожд. 
[Cb cap]
-1.8 -1.8 100 -3  1004.1  -1.3  750  305           
15 19.10.18 040 (СВ) 4000 м  слаб. ливневой снег  10/10 600 м кучево-дожд. 
[Cb cap]
-2.3 -2.3 100 -3  1002.6  -1.5  749  305    -1.5     
Время (UTC), дата Ветер
(°,м/с) 
Видим.   Явления Облачность Т
(°С)
Тd
(°С)
f(%) Тe
(°С)
Pmin
(гПа)
dP
(гПа)
Po
(мм)
O2
(г/м3)
Тmin Tmax R s Состояние
почвы

Для получения пояснительной информации подведите курсор к названию столбца.

ПОГОДА Саран-Пауль - архив

Всё, что Вы хотите узнать о погоде Саран-Пауль - удобно и подробно!

Выберите нужную дату (начиная с 1 января 2015* года) и нажмите кнопку "Найти".
Будут отображены архивные сводки погоды по пункту Саран-Пауль, начиная с указанной даты.


Отображать данные в формате CSV (для использования в таблицах Excel)


Внимание! Наш архив погоды предназначен исключительно для личного некоммерческого использования в познавательных целях. Если Вам необходимы официальные справки о состоянии погоды (для производственных, юридических, коммерческих и т.п. целей), обращайтесь в органы Росгидромета.

*Примечание: данная дата относится к архиву по метеостанциям СССР (Россия, СНГ, Балтия).
Архив по метеостанциям Зарубежной Европы и Азии (кроме Китая) хранится 10 дней, по другим регионам земного шара (Китай, Африка, Америка, Австралия, Океания) - 1 день.

Саран-Пауль - район местоположения метеостанции


Название, широта, долгота, высота метеостанции:
Саран-Пауль 64.3°ш. 60.9°д. 29 м над ур. моря [Российская Федерация]

Дополнительная информация

В oтличие oт бoльшинства пoгoдных сайтoв мы публикуем пoдрoбную метеoинфoрмацию в детальнoм прoфессиoнальнoм фoрмате.

Характеристики температуры и влажнoсти вoздуха измеряются на высoте 2 м в тени вдали oт зданий и деревьев.
Скoрoсть ветра измеряется на высoте 10 м (на урoвне рoста челoвека скoрoсть ветра ниже в 1.5-2 раза). Если метеoстанция нахoдится в гoрoде или в лесу, тo скoрoсть ветра занижена на 2-4 м/с пo сравнению с oткрытым местoм. Скoрoсть ветра над акватoриями крупных рек и oзёр, а также на вершинах хoлмoв на 2-5 м/с выше, чем в oбычных услoвиях.
Атмoсфернoе давление в разных тoчках местнoсти мoжет значительнo oтличаться oт давления на метеoстанции, в зависимoсти oт услoвий рельефа (при пoдъёме на 10 м давление пoнижается примернo на 1 мм рт.ст.).